Regional Weather Roundup
Issued by NWS

Home | Current Version | Previous Version | Text Only | Print | Product List | Glossary Off
Versions: 1 2 3 4 5 6 7 8 9 10 11 12 13 14 15 16 17 18 19 20 21 22 23 24 25 26 27 28 29 30 31 32 33 34 35 36 37 38 39 40 41 42 43 44 45 46 47 48 49 50

520
ASUS43 KFSD 030402
RWRSD

WEATHER ROUNDUP FOR SOUTH DAKOTA
NATIONAL WEATHER SERVICE SIOUX FALLS SD
1100 PM CDT MON MAY 02 2016

NOTE: "FAIR" INDICATES FEW OR NO CLOUDS BELOW 12,000 FEET WITH NO
SIGNIFICANT WEATHER AND/OR OBSTRUCTIONS TO VISIBILITY.


SDZ001>005-009-010-012>017-030500-
NORTHWEST AND NORTH CENTRAL SOUTH DAKOTA

CITY           SKY/WX    TMP DP  RH WIND       PRES   REMARKS
BUFFALO          N/A     50  33  52 NE8       29.99R
FAITH            N/A     43  39  86 S9        30.04R
MOBRIDGE       CLEAR     48  44  86 E6        29.99S
$$

SDZ012>016-024>037-041>051-057-063-072>074-030500-
SOUTHWEST AND SOUTH CENTRAL SOUTH DAKOTA

CITY           SKY/WX    TMP DP  RH WIND       PRES   REMARKS
RAPID CTY ARPT CLEAR     42  36  79 N7        30.05R
PIERRE         CLEAR     44  39  82 CALM      30.02R
CUSTER         PTCLDY    49  28  44 N12G22    30.10R
PHILIP         CLEAR     40  39  97 CALM      30.04R
PINE RIDGE     MOCLDY    45  41  86 CALM      30.04R
WINNER         CLOUDY    52  43  71 NW8       30.05R
$$

SDZ004>011-016>023-039-040-030500-
NORTHEAST SOUTH DAKOTA

CITY           SKY/WX    TMP DP  RH WIND       PRES   REMARKS
ABERDEEN       CLEAR     46  38  73 CALM      30.02R
WATERTOWN      CLEAR     50  40  68 NW3       30.01S
BROOKINGS      CLEAR     49  37  63 S8        30.03R
SISSETON         N/A     47  38  71 W3        29.99R
$$

SDZ017-020-022-023-036>040-048>070-030500-
SOUTHEAST SOUTH DAKOTA

CITY           SKY/WX    TMP DP  RH WIND       PRES   REMARKS
SIOUX FALLS    CLEAR     44  38  79 CALM      30.04R
HURON          CLEAR     48  43  82 E5        30.02R
MITCHELL       CLEAR     50  46  86 S3        30.03R
YANKTON        PTCLDY    54  37  54 CALM      30.02S
$$

ABBREVIATIONS USED IN REMARKS
   TC - TEMPERATURE IN CELSIUS
  WCI - WIND CHILL INDEX
   HX - HEAT INDEX
  VSB - VISIBILITY





USA.gov is the U.S. government's official web portal to all federal, state and local government web resources and services.